Regional Weather Roundup
Issued by NWS

Home | Current Version | Previous Version | Graphics & Text | Print | Product List | Glossary On
Versions: 1 2 3 4 5 6 7 8 9 10 11 12 13 14 15 16 17 18 19 20 21 22 23 24 25 26 27 28 29 30 31 32 33 34 35 36 37 38 39 40 41 42 43 44 45 46 47 48 49 50
000
ASUS43 KLOT 290510
RWRIL

ILLINOIS REGIONAL WEATHER ROUNDUP
NATIONAL WEATHER SERVICE CHICAGO/ROMEOVILLE IL
1100 PM CST SUN DEC 28 2014

NOTE: "FAIR" INDICATES FEW OR NO CLOUDS BELOW 12,000 FEET WITH NO
SIGNIFICANT WEATHER AND/OR OBSTRUCTIONS TO VISIBILITY.

* THESE STATIONS ARE NOT UNDER NWS QUALITY CONTROL. THEY ALSO MAY NOT
  REPORT WEATHER SUCH AS PRECIPITATION OR FOG.

ILZ001-002-007-009-015-016-024-290600-
NORTHWEST ILLINOIS

CITY           SKY/WX    TMP DP  RH WIND       PRES   REMARKS
MOLINE         MOCLDY    22  17  81 CALM      30.24S
STERLING*      PTCLDY    23  18  80 CALM      30.25S
SAVANNA*       MOCLDY    22  19  88 CALM      30.26S
$$

ILZ003-004-008-010-011-017-018-290600-
NORTH CENTRAL ILLINOIS

CITY           SKY/WX    TMP DP  RH WIND       PRES   REMARKS
ROCKFORD       PTCLDY    22  16  78 CALM      30.27R
FREEPORT*      PTCLDY    22  17  82 CALM      30.27R
ROCHELLE*      CLEAR     21  18  86 CALM      30.25S
DE KALB*       CLEAR     23  16  76 NW3       30.24S
PERU*          PTCLDY    26  20  79 CALM      30.26R
$$

ILZ005-006-012>014-019>023-290600-
NORTHEAST ILLINOIS

CITY           SKY/WX    TMP DP  RH WIND       PRES   REMARKS
CHICAGO-OHARE  PTCLDY    24  17  74 NW6       30.24R WCI  17
CHICAGO-MIDWAY PTCLDY    26  18  71 W3        30.25R
AURORA         CLEAR     21  15  78 N7        30.25S WCI  12
LANSING*       CLEAR     25  17  72 CALM      30.25S
JOLIET*        CLEAR     19  16  88 CALM      30.26R
WAUKEGAN       CLOUDY    25  19  78 NW5       30.24R WCI  19
DUPAGE AIRPORT CLEAR     22  16  78 CALM      30.24R
KANKAKEE*      PTCLDY    24  21  89 CALM      30.26S
WHEELING       CLEAR     24  17  74 CALM      30.27R
MORRIS*        CLEAR     22  19  89 N3        30.25R
ROMEOVILLE*    CLEAR     22  17  81 CALM      30.25S
NORTHERLY ISL    N/A     30  19  63 W6          N/A  WCI  24
$$

LMZ740>746-290600-
SOUTHERN LAKE MICHIGAN

STATION/POSITION SKY/WX   TEMP    WIND        PRES    VSBY  WAVE
                          AIR SEA DIR/SP/G                  HT/PER
                          (F)     (DEG/KT/KT) (MB)    (MI)  (FT/S)
WAUKEGAN HARBOR            27     340/  5/  7   N/A
HARRISON CRIB              31     290/  8/  9   N/A
BURNHAM HARBOR             30     270/  7       N/A
CALUMET HARBOR             28                   N/A
MICHIGAN CITY              33     260/ 15/ 17   N/A
$$

ILZ025>027-034>036-040-047-049-050-058-095>099-290600-
WEST-CENTRAL ILLINOIS

CITY           SKY/WX    TMP DP  RH WIND       PRES   REMARKS
QUINCY         CLEAR     28  22  78 SE5       30.22S WCI  23
GALESBURG*     MOCLDY    23  21  93 CALM      30.24R
MACOMB*        PTCLDY    24  22  92 CALM      30.26R
JACKSONVILLE*  CLEAR     26  22  87 CALM      30.24S
PITTSFIELD*    CLEAR     27  25  95 CALM      30.24S
$$

ILZ028>032-037-038-041>044-048-051>054-059>061-290600-
CENTRAL ILLINOIS

CITY           SKY/WX    TMP DP  RH WIND       PRES   REMARKS
PONTIAC        CLEAR     23  20  88 CALM      30.26R
BLOOMINGTON    PTCLDY    23  22  96 CALM      30.25R
DECATUR        PTCLDY    25  22  88 CALM      30.24S
PEORIA         PTCLDY    24  18  77 CALM      30.25R
LACON*         PTCLDY    22  18  86 CALM      30.25R
LINCOLN*       PTCLDY    25  23  92 CALM      30.27R
SPRINGFIELD    PTCLDY    24  20  84 CALM      30.26R
TAYLORVILLE    PTCLDY    25  23  93 CALM      30.25R FOG
$$

ILZ033-039-045-046-055>057-062-063-290600-
EAST-CENTRAL ILLINOIS

CITY           SKY/WX    TMP DP  RH WIND       PRES   REMARKS
CHAMPAIGN      PTCLDY    23  20  88 CALM      30.24R
DANVILLE*      CLEAR     23  22  97 CALM      30.21S FOG
RANTOUL*       PTCLDY    25  21  84 CALM      30.24S
MATTOON        CLEAR     23  22  96 CALM      30.23S
PARIS*         CLEAR     24  23  97 CALM      30.25R
$$

ILZ079-100>102-290600-
SOUTHWEST ILLINOIS

CITY           SKY/WX    TMP DP  RH WIND       PRES   REMARKS
ALTON          CLEAR     27  26  97 CALM      30.25R FOG
BELLEVILLE     CLEAR     24  24  99 CALM      30.23F
CAHOKIA*       CLEAR     27  24  89 CALM      30.24F FOG
SPARTA*        CLEAR     27  25  91 CALM      30.24S
$$

ILZ064>066-069>071-074>076-080>082-084>086-088>090-092>094-290600-
SOUTH-CENTRAL ILLINOIS

CITY           SKY/WX    TMP DP  RH WIND       PRES   REMARKS
CARBONDALE     CLOUDY    31  25  78 NE7       30.23F WCI  24
CAIRO*         CLOUDY    35  29  79 N6        30.23R WCI  30
EFFINGHAM*     CLEAR     24  22  90 CALM      30.26S FOG
MARION         CLOUDY    32  27  80 E6        30.24S WCI  26
MT. VERNON     CLEAR     25  19  80 CALM      30.23F
CENTRALIA*     CLEAR     27  25  93 CALM      30.23F FOG
SALEM*         CLEAR     28  26  93 CALM      30.23F FOG
METROPOLIS*    CLOUDY    33  30  87 NE6       30.22R WCI  28
$$

ILZ067-068-072-073-078-083-087-091-290600-
SOUTHEAST ILLINOIS

CITY           SKY/WX    TMP DP  RH WIND       PRES   REMARKS
LAWRENCEVILLE  CLEAR     27  24  89 NE3       30.25F
FLORA*         CLEAR     26  26  98 CALM      30.24F
FAIRFIELD*     CLEAR     26  25  94 CALM      30.22F
HARRISBURG*    CLOUDY    32  27  84 N3        30.25R
ROBINSON*      CLEAR     24  24  99 CALM      30.26F
CARMI*         CLEAR     28  28  99 N3        30.23F
$$

ABBREVIATIONS USED IN REMARKS
   TC - TEMPERATURE IN CELSIUS
  WCI - WIND CHILL INDEX
   HX - HEAT INDEX
  VSB - VISIBILITY
$$




USA.gov is the U.S. government's official web portal to all federal, state and local government web resources and services.